星链-2712 (STARLINK-2712 )

导读 | 星芒AI

STARLINK-2712 是 SpaceX Starlink 卫星互联网项目中的第 2712 颗卫星,属于低轨卫星群的一部分。该卫星于 2023 年发射,旨在为全球用户提供高速、低延迟的互联网服务。它运行在约 550 公里的轨道高度,与其他 Starlink 卫星协同工作,提升网络覆盖与连接质量。该项目致力于改善偏远地区的网络接入,推动全球数字包容。

基本信息
目录编号:
48674
目录名称:
STARLINK-2712
国际标识:
2021-044AN
轨道中心:
EARTH
卫星名称:
星链-2712
卫星全名:
星链-2712 (STARLINK-2712 )
卫星状态:
在轨 (已飞行1667 天)
发射日期:
2021-05-26 UTC
国别 :
美国 (US)
星等 :
--
轨道信息
数据来源 国际轨道数据 AOE轨道数据
星历时间 2025-12-18T00:29:01+0800
19小时前
查看轨道信息
2025-12-18T05:00:00+0800
14小时前
查看轨道信息
半长轴 6925.34km 6925.324km
偏心率 0.0001083 0.0001256
轨道倾角 53.055° 53.052°
近地点辐角 86.821° 76.608°
升交点赤经 119.864° 119.018°
平近点角 273.290° 224.601°
近地点 546.454km 546.319km
远地点 547.956km 548.059km
周期 95.592分钟 95.592分钟
每日圈数 15.064028 15.064081
详细信息
固有亮度:
5
最大亮度:
2.5
卫星平台:
Starlink V1.0
覆盖范围:
全球
运营商:
太空探索技术公司
运营商所在国:
美国
制造商(研发单位):
太空探索技术公司
制造商所在国:
美国
使用方式:
暂无
卫星简介
星链(Starlink)计划是由太空探索技术公司(SpaceX)提出的一个巨型低轨卫星互联网星座项目,计划在2019年至2024年间在太空搭建由约1.2万颗卫星组成的“星链”网络,其中1584颗将部署在地球上空550千米处的近地轨道,并从2020年开始工作。该卫星仍在工作。
2D轨道图
3D轨道图
轨道高度分析图
轨道倾角分析图
轨道综合分析图
查看轨道综合分析图